Weather History for Deering, AK

Change the Weather History Date:

Wednesday, February 22, 2012

  Actual Average (PAOT) Record (PAOT)
Temperature  
Mean Temperature -4 °F -  
Max Temperature 1 °F - 31 °F (1903)
Min Temperature -9 °F -7 °F -52 °F (1968)
Degree Days  
Heating Degree Days 69 65  
Month to date heating degree days 1453  
Since 1 July heating degree days 9852  
Cooling Degree Days 0    
Month to date cooling degree days  
Year to date cooling degree days  
Moisture  
Dew Point -9 °F    
Average Humidity 81    
Maximum Humidity 85    
Minimum Humidity 77    
Precipitation  
Precipitation 0.00 in 0.02 in 0.24 in (2009)
Month to date precipitation 0.51  
Year to date precipitation 1.13  
Snow  
Snow 0.00 in 0.40 in 3.70 in (2002)
Month to date snowfall 7.5  
Since 1 July snowfall 45.5  
Snow Depth -    
Sea Level Pressure  
Sea Level Pressure 29.82 in    
Wind  
Wind Speed 12 mph (WSW)    
Max Wind Speed 25 mph    
Max Gust Speed -    
Visibility 5 miles    
Events Snow    
T = Trace of Precipitation, MM = Missing Value Source: NWS Daily Summary

Daily Weather History Graph

Daily Weather History Graph

Search for Another Location

Airport:

Trip Planner

Search our weather history database for the weather conditions in past years. The results will help you decide how hot, cold, wet, or windy it might be!

Date:

Astronomy

Feb. 22, 2012 Rise Set
Actual Time 9:31 AM AKST 6:39 PM AKST
Civil Twilight 8:37 AM AKST 7:32 PM AKST
Nautical Twilight 7:38 AM AKST 8:32 PM AKST
Astronomical Twilight 6:38 AM AKST 9:32 PM AKST
Moon 8:51 AM AKST (2/22) 8:54 PM AKST (2/22)
Length of Visible Light 10h 55m
Length of Day
9h 07m
New Moon, 1% of the Moon is Illuminated
Feb 22
New Moon
Feb 29
First Quarter
Mar 8
Full
Mar 14
Last Quarter
Mar 22
New

Hourly Weather History & Observations

Time (AKST) Temp. Windchill Dew Point Humidity Pressure Visibility Wind Dir Wind Speed Gust Speed Precip Events Conditions
12:46 AM -7.6 °F -27.5 °F -11.2 °F 84% 29.55 in 9.0 mi West 12.7 mph - 0.00 in   Overcast
12:53 AM -8.0 °F -28.0 °F -11.9 °F 83% 29.55 in 8.0 mi WSW 12.7 mph - 0.00 in Snow Light Snow
1:45 AM -7.6 °F -20.6 °F -11.2 °F 84% 29.57 in 7.0 mi SSW 5.8 mph - 0.00 in Snow Light Snow
1:53 AM -8.0 °F -21.0 °F -11.9 °F 83% 29.57 in 8.0 mi SSW 5.8 mph - 0.00 in   Overcast
3:41 AM -5.8 °F -18.4 °F -9.4 °F 84% 29.61 in 2.5 mi WSW 5.8 mph - 0.00 in Snow Light Snow
3:53 AM -5.1 °F -17.6 °F -9.9 °F 80% 29.62 in 1.8 mi WSW 5.8 mph - 0.00 in Snow Light Snow
4:05 AM -5.8 °F -18.4 °F -9.4 °F 84% 29.62 in 2.5 mi WSW 5.8 mph - 0.00 in Snow Light Snow
4:13 AM -5.8 °F -19.9 °F -9.4 °F 84% 29.62 in 3.0 mi SW 6.9 mph - 0.00 in Snow Light Snow
4:53 AM -7.1 °F -19.9 °F -11.0 °F 83% 29.64 in 6.0 mi SW 5.8 mph - 0.00 in Snow Light Snow
5:53 AM -6.0 °F -18.6 °F -9.9 °F 83% 29.65 in 4.0 mi SW 5.8 mph - 0.00 in Snow Light Snow
6:53 AM -4.0 °F -16.3 °F -9.0 °F 79% 29.68 in 7.0 mi WSW 5.8 mph - 0.00 in Snow Light Snow
7:19 AM -4.0 °F -17.8 °F -9.4 °F 78% 29.68 in 2.5 mi WSW 6.9 mph - 0.00 in Snow Light Snow
7:36 AM -4.0 °F -16.3 °F -9.4 °F 78% 29.68 in 3.0 mi WSW 5.8 mph - 0.00 in Snow Light Snow
7:53 AM -4.0 °F -14.6 °F -8.0 °F 83% 29.69 in 4.0 mi WSW 4.6 mph - 0.00 in Snow Light Snow
8:53 AM -4.0 °F -12.4 °F -9.0 °F 79% 29.72 in 5.0 mi WSW 3.5 mph - 0.00 in Snow Light Snow
9:53 AM -4.0 °F -17.8 °F -9.0 °F 79% 29.73 in 5.0 mi South 6.9 mph - 0.00 in Snow Light Snow
11:12 AM -5.8 °F -18.4 °F -9.4 °F 84% 29.77 in 10.0 mi South 5.8 mph - N/A   Mostly Cloudy
12:20 PM -2.2 °F -12.5 °F -7.6 °F 78% 29.80 in 10.0 mi SW 4.6 mph - N/A   Overcast
1:32 PM -0.4 °F -10.4 °F -5.8 °F 78% 29.83 in 8.0 mi South 4.6 mph - N/A   Overcast
2:33 PM 1.4 °F -16.1 °F -2.2 °F 85% 29.84 in 8.0 mi WSW 12.7 mph - N/A   Overcast
2:53 PM 1.9 °F -16.2 °F -2.9 °F 80% 29.85 in 8.0 mi West 13.8 mph - N/A   Overcast
3:53 PM 1.9 °F -18.1 °F -2.9 °F 80% 29.87 in 5.0 mi West 17.3 mph - 0.00 in Snow Light Snow
4:53 PM -0.0 °F -21.8 °F -5.1 °F 79% 29.89 in 4.0 mi West 19.6 mph - 0.00 in   Overcast
5:34 PM -2.2 °F -26.2 °F -7.6 °F 78% 29.89 in 2.0 mi West 23.0 mph - 0.00 in   Overcast
5:44 PM -2.2 °F -26.2 °F -7.6 °F 78% 29.90 in 1.5 mi West 23.0 mph - 0.00 in Snow Light Snow
5:53 PM -2.0 °F -26.9 °F -7.1 °F 79% 29.90 in 1.2 mi West 25.3 mph - 0.00 in Snow Light Snow
6:53 PM -2.9 °F -26.1 °F -8.0 °F 79% 29.94 in 1.0 mi West 20.7 mph - 0.00 in Snow Light Snow
7:10 PM -2.2 °F -25.2 °F -7.6 °F 78% 29.94 in 1.5 mi WSW 20.7 mph - 0.00 in Snow Light Snow
7:19 PM -4.0 °F -27.6 °F -7.6 °F 85% 29.94 in 1.2 mi WSW 20.7 mph - 0.00 in Snow Light Snow
7:38 PM -4.0 °F -26.4 °F -9.4 °F 78% 29.95 in 2.0 mi WSW 18.4 mph - 0.00 in   Overcast
7:53 PM -4.0 °F -27.0 °F -9.0 °F 79% 29.96 in 2.0 mi WSW 19.6 mph - 0.00 in   Haze
8:22 PM -5.8 °F -28.8 °F -9.4 °F 84% 29.97 in 4.0 mi WSW 18.4 mph - N/A   Overcast
8:32 PM -5.8 °F -28.2 °F -9.4 °F 84% 29.97 in 7.0 mi WSW 17.3 mph - N/A   Overcast
8:53 PM -5.1 °F -24.3 °F -9.9 °F 80% 29.99 in 10.0 mi WSW 12.7 mph - N/A   Overcast
9:11 PM -5.8 °F -27.5 °F -9.4 °F 84% 29.98 in 10.0 mi WSW 16.1 mph - N/A   Overcast
9:53 PM -7.1 °F -32.1 °F -11.9 °F 79% 29.99 in 5.0 mi West 21.9 mph - N/A   Haze
10:44 PM -9.4 °F -35.2 °F -13.0 °F 84% 30.01 in 3.0 mi West 21.9 mph - N/A   Scattered Clouds
10:49 PM -9.4 °F -35.8 °F -13.0 °F 84% 30.01 in 2.5 mi West 23.0 mph - N/A   Mostly Cloudy
10:53 PM -9.0 °F -34.8 °F -14.1 °F 79% 30.01 in 2.5 mi WSW 21.9 mph - N/A   Haze
11:19 PM -9.4 °F -34.7 °F -14.8 °F 77% 30.02 in 3.0 mi West 20.7 mph - N/A   Haze
11:38 PM -9.4 °F -33.5 °F -14.8 °F 77% 30.03 in 4.0 mi WSW 18.4 mph - N/A   Scattered Clouds
11:53 PM -9.9 °F -34.2 °F -15.0 °F 78% 30.04 in 4.0 mi WSW 18.4 mph - N/A   Haze